Regional Weather Roundup
Issued by NWS

Home | Current Version | Previous Version | Text Only | Print | Product List | Glossary On
Versions: 1 2 3 4 5 6 7 8 9 10 11 12 13 14 15 16 17 18 19 20 21 22 23 24 25 26 27 28 29 30 31 32 33 34 35 36 37 38 39 40 41 42 43 44 45 46 47 48 49 50
000
ASUS43 KTOP 220659
RWRKS

WEATHER ROUNDUP FOR KANSAS
NATIONAL WEATHER SERVICE GOODLAND KS
200 AM CDT FRI MAY 22 2015

NOTE:  "FAIR" INDICATES FEW OR NO CLOUDS BELOW 12,000 FEET WITH NO
SIGNIFICANT WEATHER AND/OR OBSTRUCTIONS TO VISIBILITY.

KSZ001>006-013>018-027>032-041>047-220800-
NORTHWEST KANSAS

CITY           SKY/WX    TMP DP  RH WIND       PRES   REMARKS
GOODLAND       CLOUDY    49  46  90 SE8       30.17F
HAYS           CLOUDY    48  39  71 E5        30.20F
HILL CITY      CLOUDY    48  44  86 E3        30.21S
RUSSELL        MOCLDY    48  45  89 SE7       30.20S
$$

KSZ061>065-074>080-084>089-220800-
SOUTHWEST KANSAS

CITY           SKY/WX    TMP DP  RH WIND       PRES   REMARKS
DODGE CITY     LGT RAIN  52  46  80 S10       30.23R
ELKHART          N/A     50  46  86 SE10        N/A
GARDEN CITY    RAIN      49  48  97 SE15      30.19R FOG
GREAT BEND     CLOUDY    52  45  76 E5        30.19F
LIBERAL        CLOUDY    52  45  76 E12       30.16F
$$

KSZ066>073-081>083-090>101-220800-
SOUTHEAST KANSAS

CITY           SKY/WX    TMP DP  RH WIND       PRES   REMARKS
CHANUTE        CLEAR     48  46  93 CALM      30.22F
COFFEYVILLE    CLEAR     47  46  97 NE5       30.21F
HUTCHINSON     MOCLDY    50  44  80 E6        30.20F
NEWTON         PTCLDY    50  43  76 E3        30.22S
PARSONS        CLEAR     48  47  96 CALM      30.23F
WICHITA INTL   PTCLDY    52  46  80 E6        30.19F
WICHITA JABRA  FAIR      49  45  86 CALM      30.20F
WINFIELD       PTCLDY    49  46  90 CALM      30.21S
$$

KSZ007>012-019>026-033>040-048>060-102>105-220800-
NORTHEAST KANSAS

CITY           SKY/WX    TMP DP  RH WIND       PRES   REMARKS
CONCORDIA      PTCLDY    48  42  80 NE3       30.22S
EMPORIA        PTCLDY    50  45  83 CALM      30.21F
LAWRENCE       PTCLDY    47  45  93 N5        30.24S
MANHATTAN      CLEAR     47  45  93 CALM      30.22F
OLATHE IND     PTCLDY    53  45  74 SW5       30.24F
OLATHE EXE     PTCLDY    54  45  71 SW3       30.23S
SALINA         CLEAR     51  45  79 CALM      30.22S
TOPEKA BILLARD PTCLDY    51  47  86 CALM      30.23F
TOPEKA FORBES  PTCLDY    49  45  86 CALM      30.22F
$$



USA.gov is the U.S. government's official web portal to all federal, state and local government web resources and services.